Location: Handeloh
(53.2500°N, 9.8330°E)
Time: 18:01:05
(UTC+01:00)

S-56A Canister/Altair - Pass Details

Date: 20 November 2019
Orbit: 633 x 2499 km, 38.9° (Epoch: 04 December)

Event Time Altitude Azimuth Distance (km) Brightness Sun altitude
Rises 15:50:34 0° 206° (SSW) 5,506 13.3 2.5°
Reaches altitude 10° 15:56:12 10° 190° (S) 4,131 12.1 1.9°
Maximum altitude 16:02:02 17° 156° (SSE) 3,185 10.9 1.2°
Drops below altitude 10° 16:06:49 10° 120° (ESE) 3,275 10.5 0.6°
Sets 16:10:29 0° 100° (E) 3,922 10.7 0.1°
